Theta_e
356 350 349 351 351 351 350 348 346 347 348 348 348 347 348 350 351 352 352 351 350 351 351 350 349 350 351 353 352 352 353 352 350 350 350 350 351 351 351 352 353 353 354 353 352 353 353 353 355 355 354 352 351 353 354 356 356 354 354 356 357 356 355
356 352 351 351 352 352 349 348 347 347 347 347 347 347 347 350 351 352 352 352 351 351 351 351 350 350 351 352 352 351 352 352 351 350 350 351 352 353 354 354 355 355 355 354 353 355 354 354 355 355 354 354 353 354 355 356 357 355 355 357 358 358 357
359 359 358 352 352 354 351 349 348 347 347 346 346 346 348 351 352 352 352 352 351 350 351 352 350 350 352 353 352 351 351 352 353 351 351 352 352 354 354 355 356 355 354 355 354 354 354 354 355 355 354 355 355 354 355 357 358 357 357 357 357 357 357
362 363 362 355 352 355 352 348 348 348 347 346 346 345 347 350 351 352 352 353 352 351 352 352 351 351 353 354 353 352 351 351 353 353 351 353 352 354 356 356 356 355 354 355 355 355 355 354 355 355 355 355 355 355 356 357 359 358 358 357 356 358 358
366 360 361 361 356 353 351 347 347 349 348 347 347 345 347 350 351 352 352 353 352 351 351 352 352 353 353 354 354 354 352 351 353 354 353 353 353 355 357 357 357 356 355 355 356 356 355 355 355 355 355 355 355 355 357 358 359 359 358 356 356 357 358
368 363 361 366 361 353 350 347 347 349 348 348 348 345 346 349 351 352 352 353 353 352 352 353 354 354 353 354 354 354 354 353 353 354 353 353 354 356 357 358 357 356 355 355 356 356 355 354 355 354 355 354 354 356 357 359 359 359 359 358 358 357 358
365 365 361 364 366 359 351 347 347 349 348 348 349 346 346 349 351 352 352 352 353 352 353 353 355 355 354 354 354 354 355 354 354 354 354 354 354 356 356 356 356 355 355 355 356 356 355 354 354 355 354 354 355 357 358 359 359 359 359 359 359 359 358
358 361 362 360 363 363 356 349 348 349 348 348 348 347 346 349 351 351 352 352 353 353 353 354 355 355 355 355 354 355 355 355 355 354 354 354 354 355 355 354 354 354 354 355 356 356 356 355 354 355 355 355 354 356 358 358 358 358 359 359 359 358 358
358 359 362 359 357 359 355 349 348 348 348 348 348 348 347 349 351 352 353 352 353 355 354 353 355 356 356 356 355 355 355 355 355 355 355 354 354 354 354 354 354 354 354 355 355 355 355 355 355 355 355 355 355 355 356 357 357 357 358 358 358 358 358
361 358 359 356 354 354 349 347 348 348 347 347 347 348 349 350 351 353 353 353 354 355 354 354 355 356 357 358 357 356 356 356 355 355 355 354 354 354 354 354 354 354 354 355 354 355 354 354 354 355 354 355 355 354 354 354 355 356 357 357 357 357 357
359 359 359 354 352 352 348 348 350 349 347 347 347 348 349 350 351 353 354 354 354 355 355 355 355 356 357 357 358 357 356 356 356 355 354 354 354 354 354 354 354 354 354 354 354 355 354 354 354 354 353 353 352 351 351 351 351 352 355 356 356 356 357
355 360 362 360 356 352 350 349 348 348 349 348 347 348 349 349 351 353 354 354 355 355 356 356 356 357 357 357 357 357 357 356 355 356 355 354 354 354 354 354 353 354 354 354 354 354 354 353 353 352 351 351 352 352 352 352 351 351 352 353 355 355 357
354 358 360 364 362 355 354 352 347 347 348 349 349 348 349 349 350 352 354 354 355 355 356 356 356 356 357 357 357 357 356 356 355 355 355 355 355 354 354 353 353 354 354 354 354 354 354 353 353 353 351 351 352 353 352 351 351 351 352 353 354 354 356
353 354 353 358 359 355 355 354 351 349 346 346 349 349 349 350 349 351 352 354 355 355 356 356 356 356 356 356 356 356 356 355 355 356 355 355 355 354 354 354 354 354 354 354 354 353 353 353 353 353 352 352 353 353 351 350 351 353 354 354 355 356 356
351 352 350 352 354 352 352 353 353 350 347 347 347 348 350 349 348 350 351 352 354 354 355 356 355 356 355 355 355 355 356 355 354 355 355 356 355 354 355 354 353 354 353 353 353 353 353 353 352 352 352 353 354 353 351 351 352 354 355 355 356 357 358
351 351 350 351 352 352 352 352 352 349 347 348 346 347 349 349 348 349 350 352 353 353 354 354 354 356 355 354 354 354 354 355 354 354 355 355 355 354 354 353 353 353 351 351 352 352 353 352 352 351 350 352 354 353 352 352 353 355 356 357 359 359 359
351 350 350 351 352 353 352 351 351 349 347 347 345 346 348 348 349 349 349 351 351 352 353 352 353 355 354 354 353 353 353 354 353 354 354 354 354 354 353 353 353 353 352 351 351 351 351 351 351 350 350 352 354 353 352 353 355 357 358 359 359 359 358
350 349 351 353 352 353 353 352 351 349 347 346 345 346 346 348 350 350 350 351 351 352 352 352 354 355 354 353 353 353 354 354 353 354 354 354 354 354 353 353 353 354 353 352 352 351 351 351 351 351 351 352 353 352 352 354 355 356 358 359 359 359 359
349 349 352 352 350 353 352 350 349 347 347 346 345 345 346 348 350 350 351 352 351 351 351 352 354 354 354 353 353 353 355 354 354 354 354 356 356 354 355 355 355 355 354 354 354 353 352 351 350 350 351 351 352 351 351 353 355 356 356 357 357 357 357
348 348 349 348 350 351 349 347 347 347 347 348 347 347 347 348 350 350 351 352 351 351 351 352 353 354 354 353 353 354 355 355 355 355 355 356 356 355 356 357 357 356 355 355 355 354 354 353 352 351 351 351 351 350 351 351 353 354 353 353 353 352 353
347 347 347 347 348 348 346 345 345 345 345 346 347 348 348 349 350 350 351 352 352 351 351 352 353 354 354 353 353 354 355 355 356 356 355 356 356 356 356 357 358 358 357 356 355 355 355 354 354 353 352 351 351 350 350 350 349 350 350 349 350 349 350
347 346 345 345 345 345 344 344 344 344 344 344 345 346 347 348 350 350 350 351 352 352 351 352 353 353 353 354 354 356 356 356 356 356 357 358 359 359 359 359 359 359 359 358 356 355 354 353 353 352 350 350 348 347 347 346 347 348 348 348 349 349 351
344 344 343 342 342 343 343 343 344 344 344 344 344 344 345 346 347 349 350 349 350 351 350 350 351 352 352 353 355 355 356 356 357 358 360 361 362 362 361 361 362 361 360 358 355 352 351 351 350 348 346 345 343 342 343 342 342 344 346 348 349 350 351
341 341 341 340 340 342 341 341 342 342 341 342 342 342 343 343 343 347 349 348 348 349 349 349 349 350 351 353 354 356 356 357 358 359 360 361 361 361 361 360 361 359 355 351 349 348 349 348 345 340 338 337 335 336 337 336 335 337 341 344 346 347 346
341 340 339 340 340 340 340 339 339 339 339 339 339 340 341 341 342 346 348 349 349 348 348 348 348 348 349 350 352 354 354 354 355 355 356 357 358 358 358 356 353 351 349 346 345 346 346 342 337 333 330 328 327 327 328 327 326 327 330 333 335 337 336
340 339 339 340 339 338 337 337 337 337 337 337 338 340 340 341 344 346 348 349 349 349 348 348 347 347 348 349 350 351 351 351 351 352 353 354 354 353 353 350 347 347 349 346 344 344 340 333 328 326 324 324 323 323 322 322 322 322 322 324 326 328 330
338 338 338 338 337 336 335 335 335 335 335 336 338 340 341 342 345 347 347 348 348 348 348 347 346 346 346 347 348 349 349 349 350 351 351 351 351 349 347 346 346 346 346 344 341 339 335 330 327 326 324 323 324 325 324 324 324 323 323 323 322 323 326
338 337 336 335 334 334 333 333 334 334 334 335 338 340 342 343 344 346 346 346 346 346 346 345 345 345 344 345 346 347 348 348 348 349 349 348 347 344 343 343 342 342 341 339 335 333 331 328 327 326 324 322 323 324 323 322 321 320 319 318 316 316 317
338 336 334 334 332 332 332 332 332 333 333 334 336 339 340 341 342 343 343 344 344 344 345 344 343 343 343 343 344 344 344 345 345 345 344 343 342 341 339 338 337 336 336 334 331 329 328 328 328 326 322 320 321 322 320 319 318 317 315 314 313 311 311
336 334 333 332 331 331 331 331 332 332 332 333 334 336 337 338 341 341 341 342 343 343 343 343 342 342 341 340 340 341 340 340 341 341 340 340 340 339 338 336 335 333 332 331 329 328 328 329 330 328 325 322 322 322 319 318 317 315 314 314 311 310 311
333 332 332 331 331 331 330 330 331 330 330 330 331 332 333 333 336 338 339 340 341 341 341 340 340 340 338 338 338 338 338 338 338 338 338 339 339 338 336 335 333 330 329 328 327 327 327 329 330 331 331 327 323 319 317 315 313 313 313 313 311 312 314
330 330 330 329 329 329 329 329 329 328 328 327 327 329 329 329 330 333 336 338 339 339 338 338 337 336 336 336 336 336 337 337 337 336 336 336 336 335 334 332 331 329 327 326 325 326 328 329 331 331 329 325 319 317 317 316 315 315 315 315 316 317 318
327 328 327 327 327 326 327 327 326 326 326 325 325 326 327 328 328 329 332 335 336 335 335 334 334 334 333 334 334 334 335 335 334 335 335 334 334 333 333 333 332 330 329 327 327 329 330 331 330 327 323 319 318 318 319 319 319 320 320 320 321 321 321
325 325 325 325 324 324 324 325 324 324 324 323 324 324 325 326 325 326 328 330 331 332 332 331 330 330 330 331 332 332 332 333 334 334 334 334 334 334 334 334 333 332 332 332 331 332 332 332 329 324 318 317 317 317 316 316 316 317 318 319 321 322 323
324 324 323 323 322 322 323 322 322 322 321 320 321 322 323 323 324 325 326 326 328 329 328 327 327 327 327 328 329 329 330 330 330 331 331 332 333 333 333 333 333 332 332 331 330 329 329 328 325 319 315 315 314 313 313 313 313 314 313 315 318 322 323
324 323 323 324 326 326 324 321 319 319 320 320 320 321 321 321 322 323 324 324 325 325 324 324 324 323 324 325 325 325 327 326 326 327 328 328 328 328 328 328 328 326 323 321 321 320 319 319 317 314 312 313 313 314 314 315 315 314 312 312 317 322 324
325 325 327 328 329 329 327 325 323 323 323 323 322 321 321 320 319 321 322 323 324 323 323 323 322 321 322 322 322 324 325 324 323 322 322 321 321 321 322 322 323 322 318 315 314 314 314 314 313 313 313 314 315 316 315 315 315 313 311 314 320 324 325
328 330 330 330 330 330 330 330 329 328 327 325 322 321 321 320 321 323 325 326 325 323 322 321 320 320 320 320 319 320 320 318 316 315 314 315 315 315 316 318 319 319 318 315 314 314 314 314 315 315 316 316 316 316 316 316 316 315 314 317 322 324 324
Wind_Speed
9 9 10 11 11 11 12 14 19 22 24 26 27 29 30 29 31 32 31 33 33 30 30 31 30 30 29 28 28 27 23 19 20 22 22 21 20 20 20 20 20 19 19 20 20 18 17 16 16 15 14 13 13 13 13 12 12 11 10 9 9 8 8
8 7 8 10 11 11 14 18 21 22 23 26 28 29 30 31 32 33 32 34 35 33 31 31 31 31 30 29 28 28 25 21 20 22 21 20 20 19 20 20 19 19 18 19 19 18 17 16 17 17 15 15 15 14 13 13 13 13 12 11 11 10 10
7 6 6 9 11 10 10 13 17 22 25 25 27 29 29 32 35 35 34 35 35 34 32 31 31 31 30 29 28 28 27 23 21 22 22 21 20 20 19 19 19 19 18 17 17 18 18 17 17 18 18 18 18 16 14 14 14 14 13 13 13 11 10
6 5 3 5 8 8 10 9 13 17 24 26 27 29 31 34 37 37 36 36 36 34 33 32 32 31 30 30 29 28 28 26 23 23 23 22 21 20 19 19 18 19 18 17 16 16 17 17 18 18 18 18 18 17 15 15 15 14 13 13 14 12 10
5 5 4 3 5 7 11 14 15 15 20 26 27 27 30 34 36 36 36 36 36 36 35 33 32 31 31 31 30 28 28 28 25 24 24 22 21 21 20 20 18 18 18 18 17 17 17 17 18 18 19 19 18 17 16 16 16 15 13 12 13 12 11
4 5 6 4 5 7 10 16 18 17 17 22 28 28 29 33 35 35 36 36 36 36 35 33 31 31 31 30 30 28 27 28 27 25 25 23 22 22 21 21 19 18 19 18 18 18 18 19 19 19 19 20 18 17 16 16 16 15 13 12 13 13 12
4 3 5 5 6 7 10 16 20 19 18 19 25 29 29 32 34 35 35 35 35 35 34 33 31 30 30 30 30 28 27 28 28 26 25 24 23 22 22 21 20 20 20 18 18 18 18 19 20 20 20 20 19 19 18 17 16 16 15 14 14 14 13
6 5 3 5 6 5 7 11 17 22 21 17 16 23 30 32 33 34 34 34 35 34 34 34 33 31 31 30 30 29 28 28 28 27 26 25 24 23 22 22 21 20 20 20 19 19 19 20 21 22 22 21 20 19 19 18 16 15 16 17 16 15 14
5 5 5 3 4 3 2 2 6 18 24 18 12 17 26 32 32 33 34 34 33 33 34 34 33 32 31 30 30 30 28 28 28 28 27 26 26 25 24 24 23 21 21 22 22 22 22 22 22 23 23 23 23 23 21 20 18 17 17 17 16 16 15
3 3 5 4 2 1 1 3 4 10 19 20 16 17 22 30 33 33 34 34 34 33 34 35 33 32 31 30 30 30 29 28 28 28 28 28 27 27 26 25 24 24 23 23 22 23 24 24 25 27 25 22 20 17 15 15 16 18 19 18 16 15 14
1 1 3 5 5 4 5 6 9 8 14 18 19 19 21 26 32 34 34 34 34 34 34 34 33 32 32 31 30 30 30 29 28 29 30 30 29 28 26 24 23 23 24 22 21 22 23 22 22 20 15 11 11 11 11 12 14 15 14 15 14 13 13
3 0 1 3 5 6 7 8 12 11 9 17 22 21 20 21 27 33 35 35 35 34 34 33 33 32 32 32 31 31 31 30 30 30 30 31 30 29 27 24 22 22 22 22 23 23 21 17 14 12 10 12 17 18 18 17 16 14 14 14 13 13 13
4 3 2 2 4 6 7 8 4 10 11 9 18 24 20 16 19 25 30 33 34 34 35 34 33 33 33 33 32 32 33 32 31 31 31 31 29 28 28 25 24 24 24 24 25 24 21 16 15 18 19 18 20 21 19 17 16 16 18 16 13 13 12
5 5 3 1 4 5 4 6 6 3 9 16 12 17 23 18 15 19 23 25 26 29 32 34 35 34 34 33 33 33 34 33 32 31 31 31 29 28 28 27 27 27 26 26 25 23 21 18 17 18 18 17 19 21 19 16 15 16 17 15 13 13 12
5 5 5 3 3 5 4 2 2 7 8 5 13 10 17 21 18 19 22 23 21 22 25 28 31 34 34 34 34 35 35 34 33 31 30 30 29 27 27 27 28 27 26 27 27 23 20 20 18 17 17 18 19 19 17 16 16 17 16 15 14 14 12
3 5 5 3 2 4 5 5 2 2 8 9 3 10 7 13 21 21 22 23 22 19 19 19 21 26 30 32 33 34 35 35 33 32 30 30 30 28 26 25 25 23 22 24 25 22 20 20 20 18 17 18 19 19 17 16 17 17 16 16 16 15 13
2 4 6 4 2 4 5 6 6 4 5 10 11 6 8 7 16 22 22 22 23 21 19 16 14 16 19 23 26 28 30 31 30 28 28 28 28 27 25 25 23 19 18 19 19 18 19 21 22 21 19 19 20 20 17 16 17 18 18 17 17 16 15
3 4 5 5 3 1 4 4 5 6 7 8 12 14 12 11 16 22 22 22 23 24 23 19 17 16 17 20 23 24 24 27 27 25 22 22 23 23 23 24 22 19 18 18 16 16 18 21 22 21 19 19 20 20 18 17 18 19 19 18 17 16 15
3 4 4 4 5 3 2 3 4 5 8 10 12 15 15 15 18 21 24 25 24 25 26 23 21 21 21 22 24 24 23 23 24 24 21 19 19 19 21 23 23 21 20 19 18 18 19 20 21 19 18 19 20 20 20 19 19 19 19 18 17 16 15
2 2 3 4 5 4 3 1 2 1 2 5 9 11 12 14 18 20 23 26 27 28 28 26 24 24 24 24 25 26 24 22 21 22 23 21 18 18 19 21 22 21 20 20 19 19 19 19 19 19 18 19 19 20 20 20 19 19 18 17 16 14 13
2 1 2 3 4 4 4 4 4 3 3 2 3 7 10 13 16 18 22 27 30 29 29 27 26 27 26 26 27 27 26 25 24 23 23 21 19 19 19 20 20 20 19 20 20 21 20 20 20 20 19 19 20 20 19 18 17 17 16 14 13 12 13
3 2 1 2 3 4 4 4 5 4 4 4 4 5 7 11 13 15 18 25 30 30 30 30 29 29 29 27 28 29 28 26 26 24 22 20 19 18 18 18 18 17 17 19 20 19 18 18 19 20 20 19 19 18 16 14 14 14 14 13 12 13 15
2 1 1 3 4 5 5 5 4 4 5 6 8 8 8 10 12 14 14 15 19 23 27 29 28 29 30 29 28 29 28 25 24 23 21 20 18 17 17 16 16 15 14 16 17 16 15 15 16 18 18 17 16 14 13 11 9 9 12 13 13 14 14
1 2 2 5 6 7 8 8 6 5 5 7 11 12 13 13 14 17 16 13 15 18 22 26 28 29 30 28 27 27 27 25 24 22 20 19 17 17 16 15 16 15 10 8 11 14 14 14 15 15 15 14 13 12 12 10 8 7 10 12 14 16 16
2 4 6 7 7 7 8 7 5 5 5 7 10 12 14 18 19 22 23 20 20 20 19 22 24 23 23 24 24 24 23 22 20 18 16 15 13 13 13 12 13 12 8 4 9 13 12 13 15 16 16 16 16 14 13 13 12 10 10 11 14 16 16
5 7 9 9 9 10 10 9 7 7 8 10 11 12 14 18 24 28 26 22 22 22 23 24 23 19 17 19 20 19 17 16 15 14 12 11 10 10 10 12 15 17 12 9 10 12 12 14 16 15 15 17 18 16 14 13 13 12 12 12 13 14 16
9 10 12 11 11 12 12 11 11 10 12 12 11 15 15 6 23 29 25 22 19 18 22 27 26 22 19 19 19 18 16 15 15 14 12 12 11 12 14 15 18 20 19 17 17 16 17 18 18 17 15 16 18 18 15 12 12 12 12 13 15 15 14
9 11 12 12 12 12 12 12 13 13 13 14 13 16 17 12 19 23 23 22 18 17 20 24 24 22 20 21 21 21 20 19 18 17 16 15 16 19 21 20 21 22 24 24 23 23 23 22 21 20 17 15 17 20 18 16 15 14 14 16 18 18 14
8 9 11 12 11 11 11 12 13 13 13 16 17 18 18 17 18 19 21 21 19 20 23 25 25 23 23 23 24 24 23 23 23 23 23 23 25 27 28 27 27 28 28 28 29 29 27 25 23 22 19 17 18 20 21 19 17 15 13 13 15 15 13
9 10 11 11 10 10 12 12 12 13 15 19 22 22 20 18 18 20 20 19 21 24 26 27 28 27 25 25 26 27 27 28 28 28 28 29 30 31 30 29 29 29 29 29 29 28 26 23 23 22 20 17 15 15 18 19 17 14 11 10 12 12 9
10 11 9 9 9 11 12 12 13 14 17 21 26 27 25 22 19 18 19 21 25 27 28 29 30 29 27 27 28 29 30 31 30 30 30 29 30 31 31 30 30 30 28 27 27 26 25 23 20 19 18 16 14 14 16 17 17 13 10 9 9 8 5
10 10 9 9 9 10 12 13 15 16 18 21 27 30 29 26 23 20 21 24 27 28 29 30 31 30 28 28 28 30 31 32 31 31 30 29 29 30 30 30 30 28 26 24 25 24 23 20 18 17 17 16 15 15 15 15 14 12 9 8 7 6 5
9 9 10 10 9 10 13 15 16 17 18 20 25 29 31 30 28 25 24 26 28 29 30 31 32 32 30 29 29 30 31 32 32 32 31 29 29 29 28 28 27 25 22 22 22 20 18 16 16 16 16 15 15 14 14 14 13 12 10 10 9 9 9
9 11 12 12 12 14 16 16 17 18 19 19 24 30 32 31 29 27 27 27 27 30 31 32 33 33 32 31 31 31 31 32 32 32 31 29 28 28 27 25 25 23 21 19 18 16 15 15 15 15 15 15 15 15 15 14 14 13 13 12 12 13 13
11 13 14 15 15 16 18 18 19 20 20 21 24 29 31 30 28 28 28 27 26 29 31 31 32 32 31 31 31 31 31 31 31 31 30 29 28 27 25 23 21 20 18 17 16 15 14 15 15 14 14 15 15 14 14 14 14 14 14 14 14 14 14
13 14 15 13 12 13 17 19 20 22 21 19 21 25 28 27 27 28 28 26 24 26 28 29 29 28 28 28 28 28 29 31 31 30 30 29 28 26 25 23 21 19 18 18 16 15 15 15 16 15 16 17 16 14 14 14 14 14 15 15 15 15 15
13 11 9 7 8 10 13 15 15 16 15 15 17 22 26 27 27 27 26 23 22 22 24 25 25 25 24 25 26 27 29 30 30 30 30 29 28 27 26 25 22 20 19 19 19 19 19 19 18 17 17 17 17 15 14 14 14 15 15 16 16 16 16
11 9 7 7 9 11 11 12 13 13 14 15 17 20 23 24 24 23 22 21 21 22 22 22 23 23 23 24 25 27 29 29 29 30 30 29 28 27 27 26 24 21 19 19 20 20 20 20 19 18 17 17 17 16 16 16 17 17 16 15 16 16 16
Wind_Direction
181 180 179 181 183 181 185 183 175 176 179 180 182 184 182 183 183 184 187 189 191 194 194 196 198 199 202 204 203 203 204 205 204 202 200 200 202 203 203 206 209 212 213 216 219 221 225 227 228 229 224 221 222 221 220 221 226 228 229 233 230 232 237
186 181 178 179 181 184 188 187 180 176 180 182 183 184 183 182 183 184 187 189 192 194 195 196 198 200 203 205 205 206 206 204 202 202 203 204 205 206 207 207 210 213 215 218 221 223 227 231 232 231 227 227 226 224 224 225 228 228 227 229 231 236 241
185 173 172 177 182 181 178 187 190 180 178 184 184 184 184 183 185 186 188 190 191 194 196 197 199 201 203 205 206 208 208 207 205 206 207 208 207 210 212 214 217 219 221 224 227 226 227 232 235 234 235 236 231 227 228 230 231 231 232 233 234 238 247
183 147 128 178 177 155 146 185 220 197 179 182 186 186 185 184 187 188 189 190 191 192 195 198 201 202 203 204 206 209 210 209 210 210 211 213 214 213 214 218 222 222 224 227 230 230 229 231 235 237 239 237 230 228 231 233 234 237 238 237 233 234 247
193 137 110 165 171 149 154 183 218 219 191 183 184 189 187 185 187 188 189 191 192 193 196 198 201 203 204 205 205 209 211 211 213 214 214 216 216 214 215 221 224 224 225 229 233 236 233 231 235 240 238 232 229 231 232 232 234 238 239 237 233 236 247
225 168 146 165 178 174 172 181 200 220 212 189 183 188 188 185 186 188 190 191 193 195 195 197 200 202 204 206 205 208 211 213 216 216 217 219 218 216 218 221 225 227 229 233 236 236 234 233 236 239 234 228 228 231 230 232 237 237 237 237 236 238 245
301 241 172 173 180 178 180 184 189 203 218 207 191 187 185 185 187 188 190 192 192 194 194 195 199 201 203 206 206 208 211 214 217 217 218 221 221 221 221 222 225 228 231 235 236 233 233 233 233 234 231 227 228 228 227 230 233 234 235 237 238 239 242
319 304 247 194 183 177 177 180 177 182 200 216 205 189 183 184 188 188 190 193 193 193 194 195 197 200 203 206 206 209 212 214 217 219 220 221 222 224 225 226 226 225 228 232 232 233 235 234 231 229 228 229 229 229 228 230 232 235 236 235 236 239 240
316 312 300 260 193 193 117 87 174 179 186 198 210 203 188 182 187 190 190 193 193 193 194 196 197 200 202 204 207 209 211 214 216 219 220 221 222 225 227 230 231 228 227 230 232 234 235 236 234 230 227 229 230 229 231 232 232 235 234 233 238 241 239
306 319 322 357 68 203 17 352 264 193 181 187 201 216 203 185 185 190 191 192 193 193 195 196 197 199 200 202 206 209 210 213 216 218 219 221 223 226 228 232 234 232 231 235 237 236 237 240 240 233 227 227 228 233 243 247 248 245 236 232 236 237 235
298 29 347 18 72 136 188 235 255 218 183 188 197 214 215 193 185 188 190 193 194 194 195 196 196 198 200 202 205 208 210 213 215 217 219 221 223 226 229 233 234 231 231 235 238 238 239 241 237 231 227 227 234 245 252 259 269 268 251 241 240 235 232
292 186 46 21 71 115 164 213 258 264 215 195 196 206 215 202 189 188 190 192 193 194 194 195 196 197 199 202 205 207 210 212 215 217 218 220 222 224 228 232 232 231 232 235 238 240 242 241 233 227 229 234 236 236 234 235 244 248 238 232 235 234 229
279 255 188 155 105 103 130 158 230 305 312 259 207 195 199 205 196 188 189 191 192 194 194 194 196 197 199 202 205 207 209 211 214 217 218 219 221 221 224 228 231 232 234 236 238 240 241 241 233 227 230 235 236 236 237 236 235 231 223 220 223 228 226
295 298 307 11 86 90 106 131 151 220 309 310 274 198 181 187 193 182 181 186 189 193 195 194 195 197 199 202 204 207 209 211 214 216 217 219 220 220 222 225 228 231 235 239 239 235 231 232 230 227 230 235 237 238 238 237 234 227 221 220 224 225 224
310 311 311 340 67 88 99 109 179 181 178 280 298 252 182 171 175 176 177 180 184 190 193 194 195 197 199 202 204 207 209 211 213 215 216 217 218 221 225 227 228 233 238 239 234 225 222 227 231 229 230 232 233 235 233 232 232 226 221 220 220 218 218
305 301 285 260 144 126 124 126 137 163 151 153 232 289 254 178 169 171 177 183 187 190 189 190 196 199 201 203 205 208 210 210 212 215 215 216 219 222 226 228 229 232 234 229 222 219 220 227 230 230 229 228 225 224 224 226 226 221 216 213 212 213 214
276 283 281 276 208 155 141 142 149 159 158 153 163 216 278 235 180 173 178 185 189 191 187 184 188 194 199 201 202 207 209 208 209 211 212 215 218 221 224 227 227 224 220 215 212 214 218 223 225 224 223 222 219 217 217 217 215 213 212 210 211 216 217
270 276 281 292 297 124 127 143 158 174 178 168 175 192 219 229 198 181 179 182 185 188 186 181 179 180 185 191 195 199 201 201 201 201 202 205 211 218 225 227 222 213 207 203 199 200 204 209 215 216 214 213 213 214 215 213 211 212 214 214 214 216 215
260 279 290 305 313 346 86 140 154 187 195 190 198 204 206 211 206 193 186 182 182 185 184 181 182 184 185 188 190 189 190 193 195 195 196 198 204 213 219 219 213 206 202 198 193 193 194 199 205 208 209 209 210 213 214 212 211 213 215 217 217 216 216
270 281 315 323 316 327 334 17 113 135 217 209 221 230 227 220 216 209 197 186 182 184 182 179 183 188 188 187 187 187 188 191 194 197 199 199 201 206 211 211 209 205 202 198 193 192 191 193 197 200 204 207 210 211 211 209 212 215 218 220 221 219 214
320 322 334 322 318 324 327 341 7 10 6 346 279 268 260 243 232 224 207 190 184 185 182 178 180 187 189 187 186 189 190 192 196 200 202 202 204 206 207 209 209 207 204 199 197 198 198 196 196 197 200 204 207 206 205 206 209 213 215 215 211 204 197
301 320 308 311 327 328 327 344 358 359 354 336 316 291 273 260 248 237 217 198 191 187 183 181 184 186 187 186 187 188 189 192 195 197 198 200 200 201 202 205 207 207 206 201 196 194 191 187 187 190 192 194 196 195 193 195 201 204 203 198 192 189 188
242 218 301 337 0 5 10 25 27 1 331 307 293 281 271 266 256 246 234 215 200 188 179 181 188 189 187 187 187 186 186 188 187 185 187 191 194 196 196 194 193 193 196 194 185 176 173 174 176 181 182 181 181 179 176 172 177 188 189 185 183 184 182
188 105 30 4 9 19 32 46 40 355 319 301 296 283 270 269 258 235 219 208 202 193 183 183 191 194 192 189 185 181 182 185 183 181 183 186 190 192 188 186 187 187 183 160 133 132 151 165 161 160 162 158 155 158 157 147 142 163 175 173 173 171 165
39 52 31 20 24 33 47 60 45 2 338 325 313 294 279 273 250 217 201 192 186 185 182 182 190 196 194 188 183 179 181 182 181 185 188 186 189 194 191 185 176 170 170 142 109 113 133 148 144 143 144 139 133 130 128 123 122 130 143 151 157 156 148
31 27 21 26 43 56 63 61 41 18 5 347 332 327 309 268 224 197 188 184 176 174 175 176 184 191 186 177 171 169 174 177 177 181 181 174 176 177 165 144 130 130 139 152 144 134 130 124 115 111 117 125 123 110 95 94 100 107 115 125 131 131 129
42 37 35 43 57 62 62 54 42 33 22 8 356 360 355 242 187 174 170 169 163 162 163 165 170 171 161 151 145 141 144 151 156 158 153 152 154 145 133 124 121 124 130 133 132 132 128 119 106 94 91 101 108 100 84 75 80 90 98 100 97 97 104
43 43 46 53 60 60 59 54 47 42 36 33 34 32 40 90 137 144 145 144 138 142 147 148 151 151 141 132 129 128 130 132 134 134 130 129 128 122 119 120 121 121 123 123 123 124 123 118 112 106 95 89 97 101 93 80 73 75 85 91 91 91 92
50 51 50 51 52 54 61 62 54 48 48 51 55 58 62 78 98 111 120 124 127 136 139 136 135 131 123 120 122 122 123 123 123 123 121 119 119 116 114 115 116 116 117 120 120 119 118 115 111 106 96 85 89 96 94 86 74 64 66 78 87 92 95
63 62 58 53 52 54 62 67 61 55 57 61 64 66 68 74 87 96 101 110 123 127 124 124 126 122 116 116 117 115 115 115 116 117 118 118 119 117 115 115 115 114 115 117 117 116 116 117 116 112 106 101 97 94 93 90 83 76 75 78 81 85 89
77 79 74 63 61 63 65 71 70 63 59 64 70 69 63 62 75 87 93 106 118 119 117 119 120 118 115 114 111 109 110 110 111 112 113 115 117 117 117 117 116 114 114 115 117 118 118 118 118 117 119 120 111 98 92 90 88 92 99 93 86 89 97
87 91 87 69 61 67 72 74 73 67 60 63 71 73 68 60 61 70 86 102 111 114 115 116 113 110 108 107 106 107 107 106 105 106 106 109 112 114 116 117 115 114 115 116 117 118 119 119 120 121 122 119 108 98 96 97 99 104 108 105 103 109 113
91 87 83 75 72 80 84 81 76 72 68 66 71 76 77 71 64 67 82 96 104 109 110 109 106 104 103 103 104 106 105 104 104 105 106 109 111 112 114 116 115 115 116 117 119 120 121 123 124 122 117 109 103 101 100 100 102 102 100 99 98 99 100
100 92 88 90 91 88 87 85 83 81 77 75 78 83 83 78 71 72 79 88 97 103 103 101 101 101 102 103 103 103 103 105 106 108 109 111 113 114 115 117 119 121 122 123 124 124 126 128 126 120 116 112 109 106 101 95 91 86 81 78 78 83 86
109 108 107 103 95 89 88 89 91 90 86 83 86 87 85 82 81 82 84 86 93 99 99 98 100 101 102 103 104 104 105 106 107 109 110 112 113 114 116 119 121 122 123 124 125 123 124 127 125 120 117 114 108 102 95 88 78 70 67 66 67 71 71
122 124 122 114 102 98 100 100 99 97 93 89 87 88 88 89 91 93 93 94 96 98 99 100 101 101 102 104 105 108 110 109 109 110 111 112 113 113 114 116 117 116 114 113 115 116 117 117 118 116 112 108 103 94 86 78 68 62 61 63 64 63 61
135 134 129 121 115 113 113 112 109 107 105 101 96 96 99 101 102 103 104 105 106 106 105 106 106 105 107 110 112 114 115 114 114 114 114 115 116 117 116 116 115 113 110 109 111 112 110 108 107 106 101 96 92 86 77 70 65 61 63 66 65 59 56
138 132 121 113 114 116 117 118 120 122 125 123 116 111 112 114 114 112 112 114 119 118 114 112 112 111 111 114 116 118 118 117 117 118 118 118 120 120 121 121 119 115 113 112 111 108 106 103 101 97 91 87 84 79 74 69 66 65 69 72 68 61 59